2024-04-11T00:04:35,sb,2p5,1.7
2024-04-11T00:09:18,sb,2p5,1.6
2024-04-11T00:14:30,sb,2p5,1.2
2024-04-11T00:15:00,sb,2p5,1.2
2024-04-11T00:19:32,sb,2p5,2.2
2024-04-11T00:24:19,sb,2p5,1.4
2024-04-11T00:34:10,sb,2p5,2.0
2024-04-11T00:39:05,sb,2p5,2.8
2024-04-11T00:44:52,sb,2p5,2.9
2024-04-11T00:49:54,sb,2p5,1.5
2024-04-11T00:54:14,sb,2p5,2.4
2024-04-11T00:59:14,sb,2p5,1.9
2024-04-11T01:04:02,sb,2p5,1.3
2024-04-11T01:09:01,sb,2p5,1.0
2024-04-11T01:14:18,sb,2p5,0.9
2024-04-11T01:18:24,sb,2p5,1.1
2024-04-11T01:19:13,sb,2p5,1.1
2024-04-11T01:24:11,sb,2p5,1.6
2024-04-11T01:34:56,sb,2p5,1.2
2024-04-11T01:39:18,sb,2p5,0.1
2024-04-11T01:44:37,sb,2p5,0.3
2024-04-11T01:49:40,sb,2p5,1.1
2024-04-11T01:54:22,sb,2p5,1.1
2024-04-11T01:59:14,sb,2p5,0.5
2024-04-11T02:04:26,sb,2p5,0.6
2024-04-11T02:09:30,sb,2p5,1.1
2024-04-11T02:14:33,sb,2p5,1.0
2024-04-11T02:19:27,sb,2p5,1.3
2024-04-11T02:24:08,sb,2p5,1.3
2024-04-11T02:29:48,sb,2p5,1.1
2024-04-11T02:34:44,sb,2p5,0.7
2024-04-11T02:39:46,sb,2p5,0.6
2024-04-11T02:44:17,sb,2p5,0.8
2024-04-11T02:49:05,sb,2p5,0.9
2024-04-11T02:54:05,sb,2p5,0.5
2024-04-11T02:59:12,sb,2p5,0.8
2024-04-11T03:04:34,sb,2p5,0.6
2024-04-11T03:09:08,sb,2p5,0.7
2024-04-11T03:14:23,sb,2p5,0.3
2024-04-11T03:19:26,sb,2p5,0.4
2024-04-11T03:24:17,sb,2p5,0.2
2024-04-11T03:30:00,sb,2p5,0.3
2024-04-11T03:34:39,sb,2p5,0.1
2024-04-11T03:39:02,sb,2p5,0.7
2024-04-11T03:44:33,sb,2p5,0.2
2024-04-11T03:49:39,sb,2p5,0.1
2024-04-11T03:54:24,sb,2p5,0.5
2024-04-11T04:00:00,sb,2p5,0.5
2024-04-11T04:04:13,sb,2p5,0.0
2024-04-11T04:09:15,sb,2p5,0.7
2024-04-11T04:14:17,sb,2p5,0.3
2024-04-11T04:19:25,sb,2p5,0.0
2024-04-11T04:24:45,sb,2p5,0.5
2024-04-11T04:29:46,sb,2p5,0.1
2024-04-11T04:34:23,sb,2p5,0.1
2024-04-11T04:39:55,sb,2p5,0.8
2024-04-11T04:44:55,sb,2p5,0.8
2024-04-11T04:49:20,sb,2p5,1.2
2024-04-11T04:55:02,sb,2p5,0.7
2024-04-11T04:59:39,sb,2p5,0.8
2024-04-11T05:04:29,sb,2p5,0.2
2024-04-11T05:09:49,sb,2p5,0.7
2024-04-11T05:14:36,sb,2p5,0.3
2024-04-11T05:15:00,sb,2p5,0.3
2024-04-11T05:20:00,sb,2p5,0.1
2024-04-11T05:24:04,sb,2p5,0.1
2024-04-11T05:34:51,sb,2p5,0.1
2024-04-11T05:39:27,sb,2p5,0.0
2024-04-11T05:44:17,sb,2p5,0.1
2024-04-11T05:50:02,sb,2p5,0.0
2024-04-11T05:54:27,sb,2p5,0.1
2024-04-11T05:59:31,sb,2p5,0.1
2024-04-11T06:04:33,sb,2p5,0.0
2024-04-11T06:09:36,sb,2p5,0.0
2024-04-11T06:14:40,sb,2p5,0.0
2024-04-11T06:19:47,sb,2p5,0.0
2024-04-11T06:24:42,sb,2p5,0.1
2024-04-11T06:29:08,sb,2p5,0.2
2024-04-11T06:34:46,sb,2p5,0.0
2024-04-11T06:39:51,sb,2p5,0.4
2024-04-11T06:44:01,sb,2p5,0.2
2024-04-11T06:49:23,sb,2p5,0.1
2024-04-11T06:54:11,sb,2p5,0.3
2024-04-11T06:59:07,sb,2p5,0.2
2024-04-11T07:04:35,sb,2p5,0.1
2024-04-11T07:09:10,sb,2p5,0.2
2024-04-11T07:14:47,sb,2p5,0.2
2024-04-11T07:19:17,sb,2p5,0.0
2024-04-11T07:24:10,sb,2p5,0.0
2024-04-11T07:29:20,sb,2p5,0.1
2024-04-11T07:34:25,sb,2p5,0.2
2024-04-11T07:39:00,sb,2p5,0.0
2024-04-11T07:44:05,sb,2p5,0.0
2024-04-11T07:49:14,sb,2p5,0.1
2024-04-11T07:54:30,sb,2p5,0.0
2024-04-11T07:59:16,sb,2p5,0.0
2024-04-11T08:04:25,sb,2p5,0.0
2024-04-11T08:09:19,sb,2p5,0.0
2024-04-11T08:14:46,sb,2p5,0.0
2024-04-11T08:19:08,sb,2p5,0.0
2024-04-11T08:24:51,sb,2p5,0.0
2024-04-11T08:29:54,sb,2p5,0.0
2024-04-11T08:32:25,sb,2p5,0.0
2024-04-11T08:34:05,sb,2p5,0.0
2024-04-11T08:44:03,sb,2p5,0.0
2024-04-11T08:49:14,sb,2p5,0.0
2024-04-11T08:54:07,sb,2p5,0.0
2024-04-11T08:59:18,sb,2p5,0.0
2024-04-11T09:04:28,sb,2p5,0.0
2024-04-11T09:09:24,sb,2p5,0.0
2024-04-11T09:14:16,sb,2p5,0.0
2024-04-11T09:19:52,sb,2p5,0.0
2024-04-11T09:24:31,sb,2p5,0.0
2024-04-11T09:29:25,sb,2p5,0.0
2024-04-11T09:34:14,sb,2p5,0.0
2024-04-11T09:39:24,sb,2p5,0.0
2024-04-11T09:44:26,sb,2p5,0.0
2024-04-11T09:45:00,sb,2p5,0.0
2024-04-11T09:49:52,sb,2p5,0.0
2024-04-11T09:54:17,sb,2p5,0.0
2024-04-11T10:04:00,sb,2p5,0.0
2024-04-11T10:09:50,sb,2p5,0.0
2024-04-11T10:14:51,sb,2p5,0.0
2024-04-11T10:19:55,sb,2p5,0.0
2024-04-11T10:24:36,sb,2p5,0.0
2024-04-11T10:29:29,sb,2p5,0.0
2024-04-11T10:34:47,sb,2p5,0.0
2024-04-11T10:39:41,sb,2p5,0.0
2024-04-11T10:44:55,sb,2p5,0.0
2024-04-11T10:49:23,sb,2p5,0.0
2024-04-11T10:54:59,sb,2p5,0.0
2024-04-11T10:59:03,sb,2p5,0.0
2024-04-11T11:04:16,sb,2p5,0.0
2024-04-11T11:09:21,sb,2p5,0.0
2024-04-11T11:14:02,sb,2p5,0.0
2024-04-11T11:19:47,sb,2p5,0.0
2024-04-11T11:24:30,sb,2p5,0.0
2024-04-11T11:29:34,sb,2p5,0.0
2024-04-11T11:34:37,sb,2p5,0.0
2024-04-11T11:39:53,sb,2p5,0.0
2024-04-11T11:44:00,sb,2p5,0.0
2024-04-11T11:45:00,sb,2p5,0.0
2024-04-11T11:54:25,sb,2p5,0.0
2024-04-11T11:59:29,sb,2p5,0.0
2024-04-11T12:04:37,sb,2p5,0.0
2024-04-11T12:09:06,sb,2p5,0.0
2024-04-11T12:14:36,sb,2p5,0.0
2024-04-11T12:19:40,sb,2p5,0.0
2024-04-11T12:21:26,sb,2p5,0.0
2024-04-11T12:24:44,sb,2p5,0.0
2024-04-11T12:35:02,sb,2p5,0.0
2024-04-11T12:39:05,sb,2p5,0.0
2024-04-11T12:44:09,sb,2p5,0.0
2024-04-11T12:49:05,sb,2p5,0.0
2024-04-11T12:54:15,sb,2p5,0.0
2024-04-11T12:59:30,sb,2p5,0.0
2024-04-11T13:04:17,sb,2p5,0.0
2024-04-11T13:09:17,sb,2p5,0.0
2024-04-11T13:14:56,sb,2p5,0.0
2024-04-11T13:19:19,sb,2p5,0.0
2024-04-11T13:24:32,sb,2p5,0.0
2024-04-11T13:29:35,sb,2p5,0.0
2024-04-11T13:34:37,sb,2p5,0.0
2024-04-11T13:39:30,sb,2p5,0.0
2024-04-11T13:44:31,sb,2p5,0.0
2024-04-11T13:49:18,sb,2p5,0.0
2024-04-11T13:54:12,sb,2p5,0.0
2024-04-11T13:59:38,sb,2p5,0.0
2024-04-11T14:04:12,sb,2p5,0.0
2024-04-11T14:09:39,sb,2p5,0.0
2024-04-11T14:14:55,sb,2p5,0.0
2024-04-11T14:19:25,sb,2p5,0.0
2024-04-11T14:24:29,sb,2p5,0.0
2024-04-11T14:29:02,sb,2p5,0.0
2024-04-11T14:34:24,sb,2p5,0.0
2024-04-11T14:39:25,sb,2p5,0.0
2024-04-11T14:44:15,sb,2p5,0.0
2024-04-11T14:49:14,sb,2p5,0.0
2024-04-11T14:54:17,sb,2p5,0.0
2024-04-11T14:59:18,sb,2p5,0.0
2024-04-11T15:04:23,sb,2p5,0.0
2024-04-11T15:09:19,sb,2p5,0.0
2024-04-11T15:14:03,sb,2p5,0.0
2024-04-11T15:19:34,sb,2p5,0.0
2024-04-11T15:24:09,sb,2p5,0.0
2024-04-11T15:29:44,sb,2p5,0.0
2024-04-11T15:34:42,sb,2p5,0.0
2024-04-11T15:39:52,sb,2p5,0.0
2024-04-11T15:44:14,sb,2p5,0.0
2024-04-11T15:49:50,sb,2p5,0.0
2024-04-11T15:54:10,sb,2p5,0.0
2024-04-11T15:59:25,sb,2p5,0.0
2024-04-11T16:04:28,sb,2p5,0.0
2024-04-11T16:09:01,sb,2p5,0.0
2024-04-11T16:14:36,sb,2p5,0.0
2024-04-11T16:19:39,sb,2p5,0.0
2024-04-11T16:24:42,sb,2p5,0.0
2024-04-11T16:29:19,sb,2p5,0.0
2024-04-11T16:34:09,sb,2p5,0.0
2024-04-11T16:39:32,sb,2p5,0.0
2024-04-11T16:44:46,sb,2p5,0.0
2024-04-11T16:49:17,sb,2p5,0.0
2024-04-11T16:54:18,sb,2p5,0.0
2024-04-11T16:59:09,sb,2p5,0.0
2024-04-11T17:04:49,sb,2p5,0.0
2024-04-11T17:09:27,sb,2p5,0.0
2024-04-11T17:14:55,sb,2p5,0.0
2024-04-11T17:19:30,sb,2p5,0.0
2024-04-11T17:24:18,sb,2p5,0.0
2024-04-11T17:29:06,sb,2p5,0.0
2024-04-11T17:34:37,sb,2p5,0.0
2024-04-11T17:39:36,sb,2p5,0.0
2024-04-11T17:44:14,sb,2p5,0.0
2024-04-11T17:49:31,sb,2p5,0.0
2024-04-11T17:54:24,sb,2p5,0.0
2024-04-11T17:59:22,sb,2p5,0.0
2024-04-11T18:04:26,sb,2p5,0.0
2024-04-11T18:09:09,sb,2p5,0.0
2024-04-11T18:14:32,sb,2p5,0.0
2024-04-11T18:19:36,sb,2p5,0.0
2024-04-11T18:24:43,sb,2p5,0.0
2024-04-11T18:29:43,sb,2p5,0.0
2024-04-11T18:34:16,sb,2p5,0.0
2024-04-11T18:39:50,sb,2p5,0.0
2024-04-11T18:44:22,sb,2p5,0.0
2024-04-11T18:49:24,sb,2p5,0.0
2024-04-11T18:54:18,sb,2p5,0.0
2024-04-11T18:58:59,sb,2p5,0.0
2024-04-11T19:04:36,sb,2p5,0.0
2024-04-11T19:09:38,sb,2p5,0.0
2024-04-11T19:14:43,sb,2p5,0.0
2024-04-11T19:20:02,sb,2p5,0.0
2024-04-11T19:24:48,sb,2p5,0.0
2024-04-11T19:29:05,sb,2p5,0.0
2024-04-11T19:34:12,sb,2p5,0.0
2024-04-11T19:39:43,sb,2p5,0.0
2024-04-11T19:44:55,sb,2p5,0.0
2024-04-11T19:49:48,sb,2p5,0.0
2024-04-11T19:54:30,sb,2p5,0.0
2024-04-11T19:59:21,sb,2p5,0.0
2024-04-11T20:04:36,sb,2p5,0.0
2024-04-11T20:09:06,sb,2p5,0.0
2024-04-11T20:14:08,sb,2p5,0.0
2024-04-11T20:19:13,sb,2p5,0.0
2024-04-11T20:24:15,sb,2p5,0.0
2024-04-11T20:29:19,sb,2p5,0.0
2024-04-11T20:34:11,sb,2p5,0.0
2024-04-11T20:40:00,sb,2p5,0.0
2024-04-11T20:44:35,sb,2p5,0.0
2024-04-11T20:49:29,sb,2p5,0.0
2024-04-11T20:54:45,sb,2p5,0.0
2024-04-11T20:59:43,sb,2p5,0.0
2024-04-11T21:04:41,sb,2p5,0.0
2024-04-11T21:09:47,sb,2p5,0.0
2024-04-11T21:14:30,sb,2p5,0.0
2024-04-11T21:19:02,sb,2p5,0.0
2024-04-11T21:24:10,sb,2p5,0.0
2024-04-11T21:29:03,sb,2p5,0.0
2024-04-11T21:34:52,sb,2p5,0.0
2024-04-11T21:39:16,sb,2p5,0.0
2024-04-11T21:44:57,sb,2p5,0.0
2024-04-11T21:49:01,sb,2p5,0.0
2024-04-11T21:54:03,sb,2p5,0.0
2024-04-11T21:59:28,sb,2p5,0.0
2024-04-11T22:04:45,sb,2p5,0.0
2024-04-11T22:09:30,sb,2p5,0.0
2024-04-11T22:14:36,sb,2p5,0.0
2024-04-11T22:16:37,sb,2p5,0.0
2024-04-11T22:19:03,sb,2p5,0.0
2024-04-11T22:24:06,sb,2p5,0.0
2024-04-11T22:34:09,sb,2p5,0.0
2024-04-11T22:39:23,sb,2p5,0.0
2024-04-11T22:44:32,sb,2p5,0.0
2024-04-11T22:49:18,sb,2p5,0.0
2024-04-11T22:54:15,sb,2p5,0.0
2024-04-11T22:59:09,sb,2p5,0.0
2024-04-11T23:04:07,sb,2p5,0.0
2024-04-11T23:09:13,sb,2p5,0.0
2024-04-11T23:14:13,sb,2p5,0.0
2024-04-11T23:19:35,sb,2p5,0.0
2024-04-11T23:24:38,sb,2p5,0.0
2024-04-11T23:29:44,sb,2p5,0.0
2024-04-11T23:34:25,sb,2p5,0.0
2024-04-11T23:39:36,sb,2p5,0.0
2024-04-11T23:44:37,sb,2p5,0.0
2024-04-11T23:49:43,sb,2p5,0.0
2024-04-11T23:54:49,sb,2p5,0.0
